Radiation Dose at Monitoring Post of Fukushima Daini Nuclear Power Station
Date,Time,MP-1(microSv/h),MP-2(microSv/h),MP-3(microSv/h),MP-4(microSv/h),MP-5(microSv/h),MP-6(microSv/h),MP-7(microSv/h),Wind Direction,Wind Velocity(m/s),Rain
2017/08/13,00:00,0.346,0.212,0.348,0.323,0.317,0.170,0.106,north-northwest,7.5,Yes
2017/08/13,00:10,0.344,0.212,0.347,0.324,0.314,0.169,0.107,north,7.3,No
2017/08/13,00:20,0.347,0.211,0.345,0.321,0.312,0.169,0.107,north,8.4,No
2017/08/13,00:30,0.346,0.213,0.346,0.324,0.316,0.169,0.107,north-northwest,8.5,No
2017/08/13,00:40,0.344,0.212,0.346,0.324,0.313,0.169,0.108,north,9.2,No
2017/08/13,00:50,0.348,0.212,0.346,0.320,0.314,0.170,0.107,north,7.9,No
2017/08/13,01:00,0.345,0.213,0.349,0.325,0.316,0.168,0.107,north,8.7,No
2017/08/13,01:10,0.344,0.211,0.345,0.323,0.313,0.169,0.107,north,8.1,No
2017/08/13,01:20,0.347,0.212,0.348,0.321,0.316,0.169,0.106,north,9.5,No
2017/08/13,01:30,0.344,0.212,0.348,0.324,0.316,0.169,0.108,north,8.4,No
2017/08/13,01:40,0.345,0.212,0.346,0.322,0.313,0.170,0.107,north,8.1,No
2017/08/13,01:50,0.347,0.212,0.349,0.322,0.316,0.169,0.107,north,7.2,No
2017/08/13,02:00,0.344,0.212,0.348,0.324,0.315,0.169,0.107,north,6.3,No
2017/08/13,02:10,0.345,0.212,0.344,0.321,0.313,0.169,0.107,north,6.7,No
2017/08/13,02:20,0.347,0.212,0.348,0.324,0.318,0.169,0.106,north,7.7,No
2017/08/13,02:30,0.343,0.211,0.348,0.324,0.314,0.168,0.107,north,7.8,No
2017/08/13,02:40,0.346,0.212,0.344,0.320,0.313,0.170,0.106,north,7.5,No
2017/08/13,02:50,0.348,0.212,0.349,0.323,0.315,0.169,0.107,north,7.8,No
2017/08/13,03:00,0.345,0.211,0.344,0.323,0.313,0.168,0.108,north,8.9,No
2017/08/13,03:10,0.347,0.213,0.349,0.320,0.317,0.169,0.106,north,8.5,No
2017/08/13,03:20,0.347,0.212,0.347,0.325,0.316,0.170,0.107,north,7.3,No
2017/08/13,03:30,0.344,0.212,0.346,0.323,0.312,0.168,0.106,north,8.2,No
2017/08/13,03:40,0.347,0.211,0.349,0.321,0.317,0.169,0.106,north,7.9,No
2017/08/13,03:50,0.346,0.211,0.347,0.325,0.316,0.169,0.107,north,8.9,No
2017/08/13,04:00,0.344,0.213,0.347,0.322,0.315,0.169,0.107,north,9.5,No
2017/08/13,04:10,0.350,0.211,0.347,0.323,0.316,0.170,0.107,north,9.2,No
2017/08/13,04:20,0.346,0.211,0.346,0.326,0.313,0.170,0.107,north,10.1,No
2017/08/13,04:30,0.347,0.213,0.349,0.322,0.316,0.168,0.106,north,8.7,No
2017/08/13,04:40,0.348,0.211,0.349,0.323,0.314,0.170,0.107,north,7.6,No
2017/08/13,04:50,0.343,0.212,0.345,0.323,0.314,0.169,0.106,north,7.8,No
2017/08/13,05:00,0.347,0.212,0.347,0.321,0.315,0.168,0.106,north,7.5,No
2017/08/13,05:10,0.348,0.211,0.346,0.325,0.313,0.170,0.108,north,8.3,No
2017/08/13,05:20,0.344,0.212,0.348,0.321,0.316,0.169,0.107,north,8.4,No
2017/08/13,05:30,0.349,0.212,0.348,0.323,0.316,0.170,0.107,north,8.1,No
2017/08/13,05:40,0.347,0.211,0.345,0.324,0.313,0.170,0.107,north,7.1,No
2017/08/13,05:50,0.343,0.212,0.348,0.322,0.317,0.169,0.107,north,7.5,No
2017/08/13,06:00,0.347,0.211,0.347,0.325,0.316,0.169,0.107,north,7.4,No
2017/08/13,06:10,0.346,0.213,0.343,0.325,0.313,0.169,0.108,north,7.0,No
2017/08/13,06:20,0.344,0.213,0.349,0.320,0.316,0.169,0.106,north,6.7,No
2017/08/13,06:30,0.350,0.210,0.346,0.324,0.315,0.170,0.107,north,7.0,No
2017/08/13,06:40,0.345,0.213,0.345,0.323,0.312,0.170,0.107,north,6.8,No
2017/08/13,06:50,0.343,0.212,0.350,0.321,0.317,0.169,0.107,north,7.3,No
2017/08/13,07:00,0.347,0.211,0.346,0.324,0.314,0.170,0.107,north,7.4,No
2017/08/13,07:10,0.345,0.212,0.345,0.325,0.313,0.169,0.107,north,7.3,No
2017/08/13,07:20,0.345,0.212,0.350,0.321,0.317,0.169,0.107,north,6.7,No
2017/08/13,07:30,0.348,0.211,0.348,0.324,0.315,0.168,0.106,north,7.0,No
2017/08/13,07:40,0.347,0.212,0.346,0.324,0.314,0.170,0.107,north,5.2,No
2017/08/13,07:50,0.344,0.213,0.350,0.322,0.317,0.170,0.107,north,6.5,No
2017/08/13,08:00,0.348,0.211,0.348,0.323,0.313,0.169,0.107,north,6.7,No
2017/08/13,08:10,0.346,0.212,0.345,0.324,0.312,0.169,0.107,north,5.6,Yes
2017/08/13,08:20,0.344,0.213,0.348,0.322,0.316,0.171,0.108,north,4.2,No
2017/08/13,08:30,0.347,0.212,0.347,0.320,0.316,0.170,0.107,north,6.4,No
2017/08/13,08:40,0.349,0.211,0.346,0.324,0.313,0.168,0.107,north,7.0,Yes
2017/08/13,08:50,0.344,0.212,0.346,0.325,0.315,0.169,0.108,north,5.8,Yes
2017/08/13,09:00,0.346,0.212,0.349,0.323,0.317,0.171,0.108,north,6.6,No
2017/08/13,09:10,0.349,0.212,0.347,0.322,0.314,0.170,0.108,north,5.9,No
2017/08/13,09:20,0.346,0.213,0.345,0.326,0.312,0.169,0.107,north,5.9,No
2017/08/13,09:30,0.344,0.213,0.350,0.323,0.315,0.170,0.107,north,5.7,Yes
2017/08/13,09:40,0.349,0.211,0.350,0.323,0.317,0.170,0.108,north,5.3,No
2017/08/13,09:50,0.347,0.212,0.345,0.320,0.317,0.171,0.107,north,4.4,No
2017/08/13,10:00,0.345,0.213,0.344,0.325,0.314,0.170,0.107,north,6.4,No
2017/08/13,10:10,0.344,0.212,0.349,0.326,0.312,0.169,0.107,north,5.5,No
2017/08/13,10:20,0.349,0.211,0.348,0.323,0.313,0.171,0.108,north,5.0,No
2017/08/13,10:30,0.346,0.212,0.346,0.321,0.318,0.171,0.108,north,5.1,No
2017/08/13,10:40,0.344,0.213,0.344,0.320,0.317,0.170,0.107,north,5.7,No
2017/08/13,10:50,0.346,0.213,0.350,0.325,0.315,0.171,0.106,north-northeast,5.7,No
2017/08/13,11:00,0.349,0.212,0.350,0.325,0.314,0.169,0.106,north-northeast,6.1,No
2017/08/13,11:10,0.347,0.212,0.348,0.325,0.314,0.170,0.106,north,5.2,No
2017/08/13,11:20,0.345,0.211,0.346,0.323,0.314,0.170,0.108,north,5.8,No
2017/08/13,11:30,0.344,0.211,0.348,0.322,0.314,0.170,0.107,north-northeast,6.7,No
2017/08/13,11:40,0.343,0.212,0.344,0.322,0.315,0.171,0.107,north-northeast,6.7,No
2017/08/13,11:50,0.350,0.212,0.345,0.321,0.314,0.169,0.106,north,6.2,No
2017/08/13,12:00,0.350,0.211,0.344,0.322,0.315,0.169,0.106,north-northeast,7.3,No
2017/08/13,12:10,0.346,0.214,0.344,0.322,0.315,0.170,0.107,north,7.0,No
2017/08/13,12:20,0.343,0.214,0.348,0.322,0.314,0.170,0.108,north-northeast,7.9,No
2017/08/13,12:30,0.348,0.211,0.351,0.322,0.315,0.170,0.109,north-northeast,8.1,No
2017/08/13,12:40,0.348,0.212,0.350,0.323,0.314,0.170,0.108,north,7.7,No
2017/08/13,12:50,0.346,0.212,0.349,0.323,0.314,0.171,0.107,north-northeast,7.8,No
2017/08/13,13:00,0.346,0.212,0.347,0.323,0.314,0.171,0.108,north,7.3,No
2017/08/13,13:10,0.344,0.211,0.346,0.324,0.316,0.171,0.108,north-northeast,6.6,No
2017/08/13,13:20,0.343,0.212,0.347,0.324,0.314,0.172,0.107,north,6.4,No
2017/08/13,13:30,0.344,0.212,0.348,0.324,0.316,0.171,0.107,north,6.6,No
2017/08/13,13:40,0.346,0.211,0.347,0.323,0.314,0.170,0.106,north,7.1,No
2017/08/13,13:50,0.350,0.211,0.346,0.324,0.316,0.171,0.107,north-northeast,7.0,No
2017/08/13,14:00,0.348,0.212,0.347,0.326,0.318,0.170,0.107,north,6.7,No
2017/08/13,14:10,0.347,0.211,0.347,0.325,0.316,0.171,0.107,north-northeast,6.9,No
2017/08/13,14:20,0.347,0.211,0.347,0.324,0.315,0.169,0.107,north-northeast,6.7,No
2017/08/13,14:30,0.344,0.211,0.348,0.325,0.315,0.170,0.107,north-northeast,6.7,No
2017/08/13,14:40,0.345,0.213,0.348,0.324,0.315,0.171,0.107,north-northeast,4.9,No
2017/08/13,14:50,0.347,0.212,0.347,0.323,0.315,0.170,0.107,north-northeast,5.4,No
2017/08/13,15:00,0.351,0.212,0.348,0.322,0.315,0.171,0.106,northeast,6.1,No
2017/08/13,15:10,0.350,0.214,0.347,0.322,0.315,0.170,0.107,north-northeast,6.3,No
2017/08/13,15:20,0.347,0.215,0.344,0.322,0.315,0.170,0.107,northeast,6.1,No
2017/08/13,15:30,0.346,0.212,0.349,0.326,0.318,0.171,0.109,north-northeast,8.4,No
2017/08/13,15:40,0.350,0.212,0.352,0.329,0.322,0.170,0.108,north-northeast,8.2,No
2017/08/13,15:50,0.349,0.213,0.349,0.328,0.318,0.170,0.106,north,6.3,No
2017/08/13,16:00,0.346,0.215,0.347,0.324,0.316,0.172,0.107,north,6.2,No
2017/08/13,16:10,0.348,0.213,0.347,0.326,0.318,0.171,0.108,north,5.8,No
2017/08/13,16:20,0.351,0.213,0.352,0.328,0.321,0.172,0.108,north,5.8,No
2017/08/13,16:30,0.346,0.214,0.350,0.327,0.317,0.170,0.107,north-northeast,4.9,No
2017/08/13,16:40,0.346,0.215,0.347,0.325,0.314,0.171,0.107,north,5.0,No
2017/08/13,16:50,0.350,0.212,0.349,0.324,0.318,0.171,0.108,north,5.0,No
2017/08/13,17:00,0.348,0.213,0.352,0.327,0.319,0.170,0.108,north,4.4,No
2017/08/13,17:10,0.344,0.214,0.350,0.326,0.317,0.170,0.107,north,5.4,No
2017/08/13,17:20,0.350,0.212,0.347,0.323,0.315,0.170,0.107,north,3.8,No
2017/08/13,17:30,0.350,0.213,0.352,0.327,0.320,0.171,0.109,north,5.3,No
2017/08/13,17:40,0.347,0.215,0.348,0.328,0.316,0.170,0.108,north,3.0,No
2017/08/13,17:50,0.345,0.213,0.346,0.325,0.313,0.169,0.107,north,2.2,No
2017/08/13,18:00,0.349,0.211,0.351,0.324,0.318,0.171,0.109,north,1.5,No
2017/08/13,18:10,0.348,0.215,0.349,0.327,0.318,0.171,0.108,north,1.6,No
2017/08/13,18:20,0.347,0.214,0.347,0.325,0.315,0.169,0.108,north-northwest,1.6,No
2017/08/13,18:30,0.350,0.212,0.350,0.324,0.318,0.170,0.107,north,2.4,No
2017/08/13,18:40,0.348,0.214,0.352,0.328,0.319,0.172,0.108,north,3.1,No
2017/08/13,18:50,0.346,0.213,0.349,0.327,0.316,0.170,0.108,north,3.9,No
2017/08/13,19:00,0.349,0.211,0.349,0.325,0.317,0.171,0.107,north-northwest,1.9,No
2017/08/13,19:10,0.348,0.214,0.351,0.329,0.319,0.171,0.109,northwest,1.6,No
2017/08/13,19:20,0.346,0.214,0.348,0.328,0.314,0.171,0.108,northwest,1.6,No
2017/08/13,19:30,0.348,0.212,0.349,0.325,0.316,0.170,0.107,north-northwest,1.4,No
2017/08/13,19:40,0.352,0.213,0.352,0.326,0.320,0.171,0.108,north-northwest,1.6,No
2017/08/13,19:50,0.348,0.214,0.348,0.328,0.318,0.172,0.108,north-northwest,2.8,No
2017/08/13,20:00,0.346,0.213,0.348,0.326,0.316,0.171,0.107,north-northwest,3.3,No
2017/08/13,20:10,0.350,0.213,0.353,0.326,0.318,0.171,0.108,north,3.5,No
2017/08/13,20:20,0.347,0.214,0.351,0.329,0.317,0.171,0.108,north-northwest,2.3,Yes
2017/08/13,20:30,0.346,0.212,0.347,0.325,0.315,0.170,0.108,north-northwest,3.9,No
2017/08/13,20:40,0.350,0.214,0.352,0.324,0.319,0.169,0.108,north,5.0,No
2017/08/13,20:50,0.349,0.215,0.349,0.329,0.317,0.171,0.108,north,4.8,No
2017/08/13,21:00,0.345,0.212,0.347,0.326,0.315,0.170,0.108,north,5.3,No
2017/08/13,21:10,0.350,0.213,0.350,0.326,0.320,0.170,0.108,north,5.0,No
2017/08/13,21:20,0.350,0.213,0.351,0.329,0.317,0.171,0.108,north,4.5,No
2017/08/13,21:30,0.348,0.212,0.348,0.328,0.315,0.171,0.108,north-northwest,4.0,No
2017/08/13,21:40,0.350,0.214,0.352,0.325,0.319,0.170,0.107,north-northwest,4.5,No
2017/08/13,21:50,0.350,0.215,0.350,0.328,0.317,0.172,0.108,north-northwest,4.7,No
2017/08/13,22:00,0.347,0.213,0.346,0.326,0.315,0.171,0.108,north-northwest,4.1,No
2017/08/13,22:10,0.348,0.214,0.353,0.325,0.319,0.170,0.108,north-northwest,4.1,Yes
2017/08/13,22:20,0.351,0.215,0.352,0.327,0.317,0.171,0.109,north-northwest,3.8,Yes
2017/08/13,22:30,0.346,0.213,0.349,0.328,0.315,0.172,0.109,north-northwest,3.9,Yes
2017/08/13,22:40,0.348,0.214,0.350,0.325,0.320,0.171,0.109,north,5.2,Yes
2017/08/13,22:50,0.351,0.214,0.350,0.327,0.317,0.171,0.109,north-northwest,5.0,Yes
2017/08/13,23:00,0.347,0.213,0.348,0.328,0.315,0.171,0.109,north-northwest,4.6,No
2017/08/13,23:10,0.348,0.215,0.351,0.324,0.319,0.170,0.109,north-northwest,4.6,No
2017/08/13,23:20,0.351,0.215,0.353,0.327,0.317,0.171,0.108,north-northwest,4.4,No
2017/08/13,23:30,0.346,0.213,0.348,0.327,0.316,0.171,0.107,north-northwest,4.2,No
2017/08/13,23:40,0.348,0.215,0.351,0.325,0.318,0.171,0.108,north-northwest,4.0,No
2017/08/13,23:50,0.351,0.214,0.352,0.326,0.316,0.171,0.108,north-northwest,3.6,No
